COSMOS 2429 [-]

Last updated on Wed Jun 28 2023 00:03:31 GMT+0000 (Coordinated Universal Time)

1 32052U 07038A 23177.69909961 .00000073 00000+0 59813-4 0 9998 2 32052 82.9810 286.5563 0039076 31.3295 329.0178 13.75002586792426
UTC large
Height (km)
Speed (km/s)
/
Latitude / Longitude
Inclination (degrees)
Orbital Period (minutes)
Azimuth
Elevation
Range (km)
Doppler Factor

Next 0 passes for location: London (51.5072 / 0.1276)

Sorry there are no passes over London.
COSMOS 2429 [-]